RH
71 75 72 56 70 81 92 77 42 16 8 6 9 11 23 73 100 100 98 84 80 85 76 68 47 31 42 34 24 23 75 100 95 85 95 81 76 42 80 78 83 51 47 39 45 38 34
80 88 68 43 65 86 90 53 16 8 8 16 17 16 59 100 100 98 68 85 100 97 99 85 59 36 46 34 26 25 78 99 90 95 96 79 76 42 44 56 70 80 60 56 56 45 36
88 90 44 62 74 82 73 20 8 8 17 14 14 23 100 100 100 72 82 98 89 99 100 100 83 56 44 33 29 23 53 56 100 100 98 80 63 48 36 49 45 83 67 38 37 32 28
51 57 42 58 76 90 36 9 8 18 22 13 12 55 90 100 97 78 95 100 98 89 100 100 87 49 39 35 28 69 100 59 95 98 97 84 54 46 31 46 45 53 67 26 24 20 17
60 43 42 45 82 69 17 9 12 21 29 9 22 82 90 100 89 86 100 100 98 96 100 100 72 36 42 36 37 61 100 91 99 100 97 95 56 47 37 42 45 34 46 39 20 18 15
67 40 36 42 83 48 13 8 16 23 31 9 32 100 88 99 99 85 100 96 97 92 89 82 37 37 42 40 81 100 93 99 100 100 100 99 78 43 41 41 54 37 28 37 24 24 19
59 64 25 44 87 36 10 11 24 30 33 29 25 100 99 64 82 97 100 98 88 54 76 42 41 48 50 41 36 90 78 100 100 100 97 94 67 36 37 32 33 31 21 20 20 22 21
68 54 30 52 89 24 11 16 29 35 28 32 14 64 98 86 92 96 100 100 56 43 45 36 58 53 45 36 28 31 55 98 100 99 99 95 68 53 40 37 34 28 23 19 17 16 20
54 59 28 74 91 19 13 16 25 36 22 48 16 10 91 96 97 97 93 34 45 48 36 58 58 49 39 64 85 77 86 99 100 99 97 96 88 61 44 37 34 31 29 25 21 17 15
38 22 37 59 97 20 14 13 24 46 36 51 18 19 13 30 45 28 36 48 30 43 60 99 55 51 33 45 74 98 100 99 100 100 100 99 99 85 56 43 37 33 31 30 27 21 17
20 18 25 46 93 35 12 15 22 48 34 52 17 24 71 63 33 32 25 29 51 52 90 100 65 50 31 100 99 100 100 100 100 99 99 100 100 99 90 72 48 39 34 30 27 24 21
21 19 18 36 73 74 14 17 22 45 33 57 17 47 63 58 21 30 42 48 50 51 70 74 66 61 64 98 86 98 93 94 100 100 99 100 99 95 100 99 78 59 43 34 26 22 20
21 22 17 44 75 88 28 18 21 41 39 47 52 30 41 47 38 43 58 49 40 36 44 54 68 99 92 95 92 99 83 86 94 97 95 98 99 96 100 100 100 71 56 39 33 26 22
21 17 33 39 84 74 47 15 22 36 63 45 60 20 48 31 34 36 42 59 80 100 67 41 50 45 65 83 88 85 98 79 98 100 100 99 96 100 100 100 100 100 100 88 69 65 55
23 18 20 22 82 81 80 15 20 34 72 76 45 15 47 30 36 36 52 70 67 79 92 60 43 60 34 29 76 71 90 100 100 100 100 99 97 92 100 99 96 100 98 99 77 48 35
22 16 11 36 76 78 89 17 21 29 40 74 34 23 26 36 52 49 58 47 56 58 47 61 68 48 37 35 42 60 56 87 98 100 100 98 96 98 94 95 98 96 81 66 42 33 28
24 13 9 23 43 58 100 20 18 24 25 61 56 23 18 26 40 38 45 54 64 54 49 54 78 71 33 30 34 42 51 66 97 96 95 79 74 66 68 63 50 48 39 40 40 35 35
18 8 6 15 25 45 99 30 16 22 22 42 60 25 21 18 34 31 27 23 42 53 58 53 46 27 23 25 32 45 49 48 62 93 76 60 56 68 57 53 44 40 35 29 33 39 31
13 3 4 8 20 23 52 77 14 16 29 30 58 61 49 32 30 38 28 34 18 18 18 20 19 16 17 36 48 46 43 42 37 49 80 68 36 35 32 33 37 39 38 40 38 28 23
2 2 2 4 9 12 13 99 16 15 19 34 47 52 54 52 56 61 54 44 39 35 28 45 46 37 28 40 51 47 36 34 29 31 40 54 39 42 44 44 41 40 34 28 25 28 29
1 1 1 2 5 6 7 64 38 15 18 21 39 43 50 48 45 43 47 60 59 45 44 47 47 50 44 60 75 76 35 31 28 27 32 40 36 38 36 33 30 27 27 28 36 34 30
2 2 1 1 2 4 5 26 81 19 14 15 18 34 39 49 48 47 46 57 66 66 69 70 70 60 49 64 66 65 29 26 26 26 27 36 31 29 27 29 37 41 38 35 30 28 31
4 3 2 2 2 2 4 6 69 34 18 15 15 16 25 33 30 37 43 41 40 40 55 66 82 80 80 73 47 30 25 26 28 29 30 29 26 31 43 46 43 37 32 27 31 51 75
8 4 4 3 3 2 4 5 43 71 29 19 15 14 14 16 17 22 30 35 34 35 31 31 46 72 79 69 55 44 35 27 26 26 28 29 34 45 44 42 38 35 34 38 52 89 87
6 11 7 5 6 6 6 10 42 82 42 32 21 18 16 16 16 16 18 23 26 28 31 30 27 29 46 52 76 77 55 49 44 34 31 34 46 47 44 41 37 33 43 62 82 96 93
13 16 12 10 10 16 18 28 42 86 76 41 36 29 25 20 18 17 18 19 24 29 31 31 28 29 33 38 42 55 78 77 62 54 52 50 49 46 43 38 33 44 60 84 99 99 96
40 29 15 15 16 26 31 73 68 95 99 48 48 50 50 44 34 26 20 17 18 20 25 28 27 26 26 26 26 30 37 50 69 64 60 57 51 45 42 35 34 53 81 96 100 100 96
58 19 18 19 18 30 35 34 96 100 100 90 53 57 63 65 64 60 47 38 31 23 20 19 20 23 25 22 22 21 28 32 36 51 55 49 46 42 40 38 33 49 89 100 99 99 94
61 30 16 28 32 72 46 48 94 98 100 100 94 65 69 78 80 83 77 70 64 56 49 44 34 22 16 20 21 22 24 28 27 28 39 58 44 42 48 57 52 43 86 100 100 97 98
Wind_Speed
55 57 61 63 60 59 60 63 68 74 80 79 74 71 52 37 35 36 40 44 46 46 53 60 55 57 63 59 52 48 46 46 45 57 53 50 51 47 49 51 55 52 48 47 44 44 43
56 58 62 61 60 59 61 66 72 78 76 76 78 62 37 36 27 29 26 20 22 26 35 42 63 54 62 59 51 48 43 44 41 45 52 49 50 46 47 46 47 55 47 46 45 44 44
59 60 64 62 65 62 62 67 74 75 75 83 72 49 28 23 21 19 12 16 19 17 23 37 47 53 60 56 48 45 43 39 39 39 49 48 49 48 46 48 45 50 49 44 40 40 42
59 62 62 63 62 60 63 70 76 73 81 81 61 36 25 25 16 16 10 21 14 9 23 27 37 52 56 56 50 37 30 41 37 38 48 47 49 49 46 48 46 48 48 44 39 39 38
56 63 60 64 60 59 65 72 71 76 84 73 55 34 21 19 17 15 13 12 13 16 15 22 40 53 56 53 45 44 24 38 33 38 47 47 49 50 47 46 46 46 47 44 39 37 35
59 60 61 65 61 60 65 70 71 79 84 66 51 35 20 18 18 11 12 10 14 16 10 23 48 54 55 50 45 31 32 30 29 34 41 46 46 51 48 47 47 44 43 44 41 37 35
58 58 66 65 60 59 63 68 72 79 76 66 46 32 21 17 10 6 10 12 14 10 23 37 50 51 50 50 52 34 22 21 23 30 36 39 47 49 46 46 46 46 44 42 40 38 37
56 61 64 61 60 57 61 64 68 73 70 80 50 30 20 11 11 9 9 11 10 17 30 46 48 47 48 44 40 38 29 26 22 24 27 34 40 43 44 43 43 43 41 40 39 40 40
60 58 59 57 55 56 57 61 67 67 70 81 52 39 19 13 11 11 11 5 19 30 45 43 43 45 47 44 37 34 34 28 22 22 28 26 38 44 47 46 45 44 42 41 39 38 39
57 61 55 55 53 54 53 58 64 64 67 77 51 43 35 22 15 16 22 31 40 50 48 43 42 41 42 39 27 36 36 28 20 15 28 25 32 38 42 44 43 42 41 40 38 39 38
56 63 54 51 52 52 53 55 59 64 60 70 50 49 59 47 36 35 42 50 49 48 47 34 41 42 44 25 31 36 32 26 23 22 23 27 28 25 34 35 39 40 39 38 39 39 39
59 61 52 48 49 50 50 49 52 57 53 59 49 55 55 39 44 48 49 48 44 44 41 40 38 39 31 25 25 22 22 28 22 22 20 19 25 25 21 21 31 36 38 38 39 38 39
63 59 50 45 48 44 45 44 45 49 51 48 40 48 54 35 37 42 45 47 46 43 36 34 41 32 17 31 26 23 18 24 23 25 21 22 17 23 25 24 24 30 32 35 36 37 37
60 59 49 43 44 42 39 38 40 42 51 45 32 30 39 30 33 32 37 45 33 30 30 31 28 23 21 29 21 21 18 23 24 20 20 25 22 26 25 26 26 23 26 25 26 26 26
59 59 49 43 40 39 34 33 34 35 39 43 35 28 35 28 30 33 29 25 29 28 28 25 25 21 20 21 16 21 15 17 24 27 20 26 27 23 24 25 24 20 22 22 20 21 21
60 61 49 39 34 37 31 28 27 27 32 38 34 24 28 23 34 28 23 12 21 22 22 22 19 17 15 13 18 13 13 11 18 24 22 20 23 24 22 26 25 21 20 22 20 20 20
61 59 48 30 32 30 27 23 20 20 25 30 34 22 20 15 18 17 20 15 13 14 16 15 15 13 12 12 15 12 11 11 11 18 21 17 17 19 23 23 23 22 22 24 23 22 20
58 53 43 29 31 27 23 18 14 13 16 22 27 24 19 18 21 13 13 15 13 15 14 13 9 9 11 12 14 13 14 14 15 13 17 15 16 21 23 22 24 22 20 20 19 16 15
60 45 37 31 31 27 19 13 17 8 9 13 17 21 19 13 16 13 13 12 10 9 9 9 7 7 8 12 12 13 14 14 15 16 13 17 12 17 18 18 19 20 22 18 17 15 14
53 42 35 28 27 27 20 14 14 8 2 5 8 11 15 17 15 10 7 6 7 8 8 5 4 5 8 9 10 10 12 13 13 14 15 12 12 12 14 15 16 16 17 16 14 14 15
45 38 34 30 26 25 23 14 11 12 5 3 2 3 6 8 10 12 14 11 6 4 4 3 4 5 7 9 10 12 11 11 12 12 15 15 11 12 14 13 14 15 15 13 14 15 14
46 38 34 32 28 23 22 16 12 15 11 8 7 7 4 1 2 8 11 11 12 10 6 3 3 6 8 9 11 12 11 12 12 13 13 12 12 12 11 12 12 12 12 12 13 13 13
48 39 34 29 28 25 21 18 15 17 16 12 7 8 12 10 8 5 3 5 5 6 7 8 4 4 5 9 8 8 9 11 12 12 12 13 12 12 12 12 11 11 11 11 12 12 12
45 38 32 32 30 29 22 21 21 20 19 17 14 11 9 9 12 13 11 9 7 5 3 1 2 3 5 7 6 8 9 11 12 13 13 13 13 13 12 12 11 11 11 11 12 12 14
43 36 31 30 30 32 25 22 24 22 23 21 18 16 13 12 10 10 10 11 13 13 10 8 8 7 7 6 7 13 11 11 11 12 13 14 14 14 13 13 12 11 11 13 13 15 15
38 32 27 28 29 30 28 22 25 25 27 25 22 19 17 15 15 14 13 12 11 11 11 12 10 10 12 12 11 12 14 18 17 15 15 15 16 16 15 14 12 12 13 14 15 18 16
31 34 30 28 32 30 30 22 25 28 28 30 27 23 20 19 18 18 17 17 16 17 17 18 15 13 11 13 14 14 15 17 20 20 19 20 19 18 19 16 14 12 13 15 17 16 16
31 31 28 28 32 34 28 24 24 29 29 33 32 28 23 21 21 21 21 21 21 21 21 22 23 20 22 20 19 17 17 17 17 20 22 21 21 21 20 16 16 14 15 17 18 17 17
31 26 26 29 31 29 25 24 27 30 31 32 34 32 27 23 24 22 22 25 26 27 27 27 24 24 27 26 25 24 22 20 19 19 22 24 23 22 21 18 16 17 18 20 19 20 20
Wind_Direction
336 332 337 343 338 335 331 330 330 329 325 324 325 321 316 303 293 290 283 280 269 258 243 237 226 221 219 214 212 213 214 220 215 218 214 216 215 216 219 222 218 222 221 223 225 225 224
338 338 342 345 340 335 335 334 334 330 333 336 330 327 316 312 304 297 302 287 284 252 238 228 226 215 213 210 205 211 213 218 214 213 207 212 210 214 215 219 222 223 227 229 228 229 229
340 339 344 343 338 339 338 338 335 337 339 340 335 332 313 313 298 307 329 347 349 252 233 216 215 205 204 203 198 208 211 216 216 209 201 206 207 210 211 212 213 219 227 229 228 229 229
343 343 347 343 343 343 341 341 341 345 347 345 338 337 318 314 300 293 307 340 321 314 223 214 207 197 193 196 193 193 198 206 213 211 195 198 204 208 208 210 212 217 218 225 223 225 228
345 347 346 345 346 344 346 344 345 351 351 346 340 342 330 322 317 287 293 316 326 333 228 206 184 183 187 188 191 201 211 208 207 205 193 195 201 206 206 209 211 215 218 223 227 226 228
344 350 349 348 348 347 349 349 350 353 353 350 346 339 340 331 328 295 303 313 310 312 211 180 170 175 181 177 171 165 192 190 200 198 190 193 199 204 204 209 212 216 218 221 228 227 228
347 345 352 349 348 349 353 354 356 359 5 1 350 333 344 354 332 320 302 312 308 306 162 161 163 171 172 176 185 190 186 190 195 198 196 194 201 205 207 209 211 215 221 223 227 230 231
346 347 352 351 351 351 359 358 359 5 4 8 0 353 347 343 334 326 323 311 308 147 147 153 158 164 165 170 178 189 194 202 194 192 195 198 198 202 207 211 214 217 222 225 227 230 232
353 349 353 352 353 353 3 0 2 6 2 6 8 8 357 356 337 340 322 15 123 133 137 142 150 155 161 162 164 183 174 179 187 171 191 198 197 199 205 211 215 219 222 226 229 231 233
351 351 350 349 352 352 6 2 6 6 4 10 20 30 35 33 26 56 94 111 120 127 131 131 146 155 161 166 185 183 179 186 191 186 207 198 198 204 205 208 214 222 225 229 232 233 236
350 351 349 347 350 354 1 6 10 8 7 14 36 53 57 50 68 84 101 112 118 125 121 132 147 152 159 156 162 173 176 181 181 185 161 169 191 193 206 211 215 218 223 228 233 236 239
347 350 348 349 348 354 356 9 15 13 10 18 53 48 40 57 90 100 106 110 118 127 127 137 142 143 154 164 160 155 166 183 192 158 176 160 177 184 196 197 210 217 222 226 232 238 242
343 348 349 346 348 356 354 12 19 16 20 20 32 34 33 60 90 102 106 111 118 116 125 139 145 148 135 159 162 156 167 179 194 190 181 181 177 186 192 194 197 202 215 222 228 234 241
341 345 348 342 345 354 354 10 20 21 21 32 37 34 35 76 90 102 109 114 93 105 123 137 143 153 144 149 167 161 169 184 184 174 189 174 169 182 169 178 187 196 200 209 215 223 231
336 343 344 338 341 347 353 8 22 27 27 26 30 51 45 81 83 93 104 99 83 94 116 140 145 146 156 161 157 164 161 174 191 188 185 193 194 194 188 194 195 203 212 216 222 222 227
334 338 343 335 337 341 351 356 22 34 30 34 34 65 54 79 101 77 67 106 86 91 111 116 129 147 164 167 176 190 184 158 188 196 199 199 201 206 203 209 220 226 223 226 229 228 230
330 336 340 335 332 341 345 340 15 32 21 43 41 66 55 110 101 72 60 90 111 99 112 119 123 140 156 158 170 176 186 181 172 190 194 196 207 207 213 220 227 227 228 232 231 230 228
328 336 336 334 323 336 339 334 2 31 24 38 60 59 67 75 83 89 41 62 104 108 107 122 123 132 149 164 166 175 183 189 192 186 188 198 209 213 216 221 226 226 228 227 230 224 218
325 332 332 333 318 325 326 322 322 23 33 35 57 73 74 59 59 63 65 70 88 102 113 105 115 143 159 166 179 187 183 187 193 197 196 203 224 222 219 223 225 221 223 221 216 211 213
326 331 332 329 319 316 319 317 302 326 65 66 54 62 77 81 75 66 68 72 102 112 127 119 133 153 170 179 184 182 190 190 193 199 199 210 215 208 206 203 202 201 204 206 209 218 226
327 332 332 330 315 312 309 286 271 290 284 168 158 63 60 68 87 86 79 87 98 128 184 232 220 192 191 187 190 194 197 197 202 199 202 206 202 195 194 195 199 201 206 212 223 232 237
326 330 329 326 319 308 296 272 255 258 264 260 228 212 184 142 70 91 86 80 83 89 87 117 195 204 202 217 202 201 204 197 199 198 196 195 201 199 201 201 207 217 223 231 237 239 239
320 327 327 323 317 304 290 275 247 239 248 256 235 231 222 223 235 241 191 130 92 84 70 70 102 138 181 182 196 198 200 208 205 205 206 208 206 198 200 213 226 238 241 240 246 234 223
320 328 329 328 309 297 284 269 241 235 234 245 251 241 232 240 239 235 241 247 232 248 295 326 50 121 179 204 214 219 218 211 213 213 209 207 204 211 221 233 244 248 251 249 237 222 207
323 329 330 332 312 296 285 265 239 236 232 235 243 250 250 248 243 242 236 241 247 252 253 256 259 254 245 243 226 228 223 217 217 217 218 217 217 226 236 247 250 248 248 246 225 217 206
324 332 323 317 304 298 289 268 242 233 230 232 235 240 246 254 258 253 253 250 246 251 251 251 253 261 264 261 257 248 238 235 233 229 230 231 235 238 245 248 254 249 246 236 231 213 210
326 329 326 312 303 294 286 268 257 237 231 231 233 237 241 247 252 260 262 262 263 261 256 257 259 258 257 265 269 268 258 247 240 235 235 239 240 241 244 247 252 246 241 229 233 217 217
319 325 311 304 302 299 280 270 261 243 235 230 235 237 241 249 254 258 262 267 267 265 265 263 262 263 261 260 262 275 269 262 256 244 239 237 238 239 243 246 246 247 236 229 230 229 229
314 314 309 303 303 302 281 265 266 247 239 236 232 239 243 247 257 261 261 262 265 265 266 266 265 264 263 261 259 260 265 266 263 261 248 239 236 236 243 248 251 244 238 236 237 233 235